Regional Weather Roundup
Issued by NWS

Home | Current Version | Previous Version | Text Only | Print | Product List | Glossary On
Versions: 1 2 3 4 5 6 7 8 9 10 11 12 13 14 15 16 17 18 19 20 21 22 23 24 25 26 27 28 29 30 31 32 33 34 35 36 37 38 39 40 41 42 43 44 45 46 47 48 49 50
000
ASUS43 KIND 241409
RWRIN

WEATHER ROUNDUP FOR INDIANA
NATIONAL WEATHER SERVICE INDIANAPOLIS IN
1000 AM EDT SAT JUN 24 2017

NOTE: "FAIR" INDICATES FEW OR NO CLOUDS BELOW 12,000 FEET WITH NO
SIGNIFICANT WEATHER AND/OR OBSTRUCTIONS TO VISIBILITY.

* - STATION DOES NOT REPORT WEATHER SUCH AS PRECIPITATION OR FOG.

+ - STATION NOT QUALITY CONTROLLED BY THE NATIONAL WEATHER SERVICE.
    USE DATA WITH CAUTION...ESPECIALLY DEWPOINT AND RELATIVE
    HUMIDITY OBSERVATIONS.

INZ001>003-010>013-019-020-241500-
NORTHWEST INDIANA

CITY           SKY/WX    TMP DP  RH WIND       PRES   REMARKS
GARY /AIRPORT/ MOSUNNY   70  54  56 W9        29.95R
KNOX *+        SUNNY     64  50  59 W10       29.95R
LA PORTE +     SUNNY     67  56  67 NW9       29.95R
MICHIGAN CITY+ PTSUNNY   64  54  68 W7        29.96R
MONTICELLO +   SUNNY     67  58  73 W7        29.96R
VALPARAISO     SUNNY     70  58  65 W8        29.96R

$$

LMZ046-743>745-241500-
SOUTHERN LAKE MICHIGAN

STATION/POSITION TIME  TEMP    WIND        PRES    WAVE
                       AIR SEA DIR/SP/G            HT
                 (UTC) (F)     (DEG/KT/KT) (MB)    (FT)
BURNS HARBOR     1340   65     280/ 11/ 12 1014.6R
MICHIGAN CITY    1340   65     270/ 15/ 17   N/A
5NW MICH CITY    1400   65 68  280/ 12/ 16   N/A     3

$$

INZ004-005-014>016-021>024-241500-
NORTH CENTRAL INDIANA

CITY           SKY/WX    TMP DP  RH WIND       PRES   REMARKS
ELKHART        MOSUNNY   68  55  64 W12       29.92R
GOSHEN         SUNNY     68  56  65 W12       29.92R
LOGANSPORT +   SUNNY     66  59  77 W7        29.97R
PERU/GRISSOM   SUNNY     67  60  76 W8        29.96R
ROCHESTER +    SUNNY     70  59  68 W6        29.95R
SOUTH BEND     MOSUNNY   68  58  70 NW14      29.93R
WARSAW +       SUNNY     68  55  64 W9        29.94R

$$

INZ006>009-017-018-025>027-241500-
NORTHEAST INDIANA

CITY           SKY/WX    TMP DP  RH WIND       PRES   REMARKS
AUBURN +       SUNNY     70  54  56 W6        29.93R
FORT WAYNE     MOSUNNY   69  58  67 W10       29.94R
HUNTINGTON +   SUNNY     67  58  71 W5        29.95R
KENDALLVILLE + MOSUNNY  N/A N/A N/A W6        29.93R

$$

INZ028-029-035-036-043>045-051>053-241500-
WEST CENTRAL INDIANA

CITY           SKY/WX    TMP DP  RH WIND       PRES   REMARKS
GREENCASTLE +  SUNNY     66  55  68 W5        30.01S
LAFAYETTE      SUNNY     67  61  81 W7        29.97S
TERRE HAUTE    SUNNY     69  56  62 W7        30.02R

$$

INZ030>032-037>040-046>048-054>057-064-065-241500-
CENTRAL INDIANA

CITY           SKY/WX    TMP DP  RH WIND       PRES   REMARKS
CP ATTERBURY + SUNNY     68  59  73 NW6       30.01R
COLUMBUS       MOSUNNY   66  59  77 NW6       30.00R
FRANKFORT +    SUNNY     70  61  73 W6        30.00S
GREENWOOD *+   SUNNY     68  57  67 NW3       30.00R
INDIANAPOLIS   MOSUNNY   69  59  70 NW6       29.99R
-EAGLE CREEK   SUNNY     69  58  67 NW6       29.98R
KOKOMO +       SUNNY     67  59  75 W8        29.98R
MARION +       SUNNY     66  57  72 NW8       29.97S
MT COMFORT *+  SUNNY     68  59  73 W7        29.99R
SHELBYVILLE    SUNNY     70  57  63 NW7       29.98R
ZIONSVILLE +   SUNNY     66  59  77 NW8       29.99S

$$

INZ033-034-041-042-049-050-058-059-241500-
EAST CENTRAL INDIANA

CITY           SKY/WX    TMP DP  RH WIND       PRES   REMARKS
MUNCIE         SUNNY     70  58  65 NW8       29.97R

$$

INZ060-061-067>069-081>083-085>088-241500-
SOUTHWEST INDIANA

CITY           SKY/WX    TMP DP  RH WIND       PRES   REMARKS
EVANSVILLE     SUNNY     71  58  63 NW8       30.06R
HUNTINGBURG *+ SUNNY     70  61  73 N6        30.05R
WASHINGTON +   SUNNY     69  57  66 NW8       30.04R

$$

INZ062-063-066-070>080-084-089>092-241500-
SOUTH CENTRAL AND SOUTHEAST INDIANA

CITY           SKY/WX    TMP DP  RH WIND       PRES   REMARKS
BEDFORD +      SUNNY     68  59  73 W3        30.01R
BLOOMINGTON    SUNNY     68  59  73 W7        30.02R
MADISON *+     SUNNY     68  59  73 W5        30.03R
NORTH VERNON + SUNNY     66  59  77 W5        30.01R
SEYMOUR +      SUNNY     70  59  68 W6        30.01R

$$





USA.gov is the U.S. government's official web portal to all federal, state and local government web resources and services.